When you browse on this site, cookies collect data to enhance your experience and personalize the content and advertising you see.
Visit our Privacy Policy to learn more. By continuing to use the site, you agree to this use of cookies and data.
  • In United Kingdom
  • List of Countries
  • For 7 days
  • Water Temperature
  • Weather Map
  • Weather Widgets
  • user-avatar
    Login

    Hourly Weather Pamporovo

    Today, 19 October, Saturday

    Time Temperature Precipitation Wind Pressure Humidity
    00:00 +9°C° 0 mm 1 mps 626 mmHg 74%
    01:00 +9°C° 0 mm 1 mps 626 mmHg 74%
    02:00 +8°C° 0 mm 1 mps 626 mmHg 74%
    03:00 +8°C° 0 mm 1 mps 626 mmHg 73%
    04:00 +8°C° 0 mm 1 mps 626 mmHg 72%
    05:00 +8°C° 0 mm 1 mps 626 mmHg 71%
    06:00 +9°C° 0 mm 1 mps 627 mmHg 67%
    07:00 +9°C° 0 mm 0 mps 627 mmHg 64%
    08:00 +10°C° 0 mm 0 mps 628 mmHg 60%
    09:00 +13°C° 0 mm 1 mps 629 mmHg 54%
    10:00 +15°C° 0 mm 1 mps 630 mmHg 48%
    11:00 +18°C° 0 mm 1 mps 630 mmHg 43%
    12:00 +17°C° 0 mm 2 mps 630 mmHg 41%
    13:00 +17°C° 0 mm 2 mps 630 mmHg 40%
    14:00 +18°C° 0 mm 2 mps 630 mmHg 39%
    15:00 +16°C° 0 mm 2 mps 629 mmHg 45%
    16:00 +15°C° 0 mm 1 mps 628 mmHg 52%
    17:00 +14°C° 0 mm 1 mps 628 mmHg 58%
    18:00 +12°C° 0 mm 1 mps 627 mmHg 62%
    19:00 +11°C° 0 mm 1 mps 627 mmHg 67%
    20:00 +9°C° 0 mm 1 mps 627 mmHg 72%
    21:00 +9°C° 0 mm 1 mps 627 mmHg 72%
    22:00 +9°C° 0 mm 1 mps 627 mmHg 72%
    23:00 +9°C° 0 mm 1 mps 627 mmHg 72%

    Tomorrow, 20 October, Sunday

    Time Temperature Precipitation Wind Pressure Humidity
    00:00 +9°C° 0 mm 1 mps 627 mmHg 72%
    01:00 +8°C° 0 mm 1 mps 627 mmHg 72%
    02:00 +8°C° 0 mm 1 mps 627 mmHg 72%
    03:00 +8°C° 0 mm 1 mps 627 mmHg 70%
    04:00 +8°C° 0 mm 1 mps 627 mmHg 69%
    05:00 +8°C° 0 mm 1 mps 627 mmHg 68%
    06:00 +9°C° 0 mm 1 mps 628 mmHg 64%
    07:00 +10°C° 0 mm 1 mps 628 mmHg 60%
    08:00 +10°C° 0 mm 0 mps 629 mmHg 56%
    09:00 +13°C° 0 mm 1 mps 630 mmHg 51%
    10:00 +15°C° 0 mm 1 mps 631 mmHg 45%
    11:00 +19°C° 0 mm 1 mps 632 mmHg 39%
    12:00 +19°C° 0 mm 1 mps 631 mmHg 39%
    13:00 +18°C° 0 mm 2 mps 631 mmHg 39%
    14:00 +18°C° 0 mm 2 mps 631 mmHg 39%
    15:00 +17°C° 0 mm 2 mps 630 mmHg 45%
    16:00 +15°C° 0 mm 1 mps 630 mmHg 51%
    17:00 +14°C° 0 mm 1 mps 629 mmHg 57%
    18:00 +13°C° 0 mm 1 mps 629 mmHg 62%
    19:00 +11°C° 0 mm 1 mps 629 mmHg 66%
    20:00 +10°C° 0 mm 1 mps 628 mmHg 71%
    21:00 +10°C° 0 mm 1 mps 628 mmHg 71%
    22:00 +9°C° 0 mm 1 mps 628 mmHg 72%
    23:00 +9°C° 0 mm 1 mps 629 mmHg 73%

    Day after tomorrow, 21 October, Monday

    Time Temperature Precipitation Wind Pressure Humidity
    00:00 +9°C° 0 mm 1 mps 628 mmHg 73%
    01:00 +9°C° 0 mm 1 mps 628 mmHg 74%
    02:00 +8°C° 0 mm 1 mps 628 mmHg 75%
    03:00 +8°C° 0 mm 1 mps 628 mmHg 76%
    04:00 +8°C° 0 mm 1 mps 628 mmHg 76%
    05:00 +8°C° 0 mm 1 mps 628 mmHg 77%
    06:00 +9°C° 0 mm 1 mps 629 mmHg 73%
    07:00 +10°C° 0 mm 1 mps 629 mmHg 69%
    08:00 +11°C° 0 mm 1 mps 630 mmHg 65%
    09:00 +13°C° 0 mm 1 mps 630 mmHg 57%
    10:00 +15°C° 0 mm 1 mps 631 mmHg 48%
    11:00 +18°C° 0 mm 1 mps 632 mmHg 40%
    12:00 +18°C° 0 mm 2 mps 632 mmHg 39%
    13:00 +18°C° 0 mm 2 mps 632 mmHg 38%
    14:00 +18°C° 0 mm 2 mps 632 mmHg 37%
    15:00 +16°C° 0 mm 2 mps 631 mmHg 43%
    16:00 +15°C° 0 mm 2 mps 630 mmHg 49%
    17:00 +13°C° 0 mm 1 mps 630 mmHg 55%
    18:00 +12°C° 0 mm 1 mps 629 mmHg 58%
    19:00 +11°C° 0 mm 1 mps 629 mmHg 61%
    20:00 +9°C° 0 mm 1 mps 628 mmHg 64%
    21:00 +9°C° 0 mm 1 mps 628 mmHg 64%
    22:00 +9°C° 0 mm 1 mps 628 mmHg 64%
    23:00 +8°C° 0 mm 1 mps 628 mmHg 64%

    22 October, Tuesday

    Time Temperature Precipitation Wind Pressure Humidity
    00:00 +8°C° 0 mm 1 mps 628 mmHg 67%
    01:00 +8°C° 0 mm 1 mps 628 mmHg 69%
    02:00 +7°C° 0 mm 1 mps 628 mmHg 71%
    03:00 +7°C° 0 mm 1 mps 628 mmHg 73%
    04:00 +7°C° 0 mm 1 mps 628 mmHg 75%
    05:00 +7°C° 0 mm 1 mps 628 mmHg 77%
    06:00 +8°C° 0 mm 1 mps 628 mmHg 73%
    07:00 +8°C° 0 mm 1 mps 629 mmHg 70%
    08:00 +9°C° 0 mm 1 mps 629 mmHg 66%
    09:00 +12°C° 0 mm 1 mps 630 mmHg 56%
    10:00 +14°C° 0 mm 2 mps 631 mmHg 46%
    11:00 +16°C° 0 mm 2 mps 632 mmHg 36%
    12:00 +16°C° 0 mm 2 mps 632 mmHg 35%
    13:00 +17°C° 0 mm 2 mps 631 mmHg 35%
    14:00 +17°C° 0 mm 2 mps 631 mmHg 34%
    15:00 +16°C° 0 mm 2 mps 631 mmHg 40%
    16:00 +14°C° 0 mm 2 mps 630 mmHg 46%
    17:00 +13°C° 0 mm 1 mps 629 mmHg 51%
    18:00 +11°C° 0 mm 1 mps 629 mmHg 54%
    19:00 +10°C° 0 mm 1 mps 628 mmHg 57%
    20:00 +9°C° 0 mm 1 mps 628 mmHg 61%
    21:00 +8°C° 0 mm 1 mps 628 mmHg 61%
    22:00 +8°C° 0 mm 1 mps 628 mmHg 61%
    23:00 +8°C° 0 mm 1 mps 628 mmHg 61%

    23 October, Wednesday

    Time Temperature Precipitation Wind Pressure Humidity
    00:00 +7°C° 0 mm 1 mps 628 mmHg 63%
    01:00 +7°C° 0 mm 1 mps 628 mmHg 65%
    02:00 +7°C° 0 mm 1 mps 627 mmHg 68%
    03:00 +7°C° 0 mm 1 mps 627 mmHg 68%
    04:00 +6°C° 0 mm 2 mps 627 mmHg 68%
    05:00 +6°C° 0 mm 2 mps 627 mmHg 69%
    06:00 +6°C° 0 mm 2 mps 628 mmHg 65%
    07:00 +7°C° 0 mm 2 mps 628 mmHg 61%
    08:00 +9°C° 0 mm 1 mps 629 mmHg 57%
    09:00 +12°C° 0 mm 2 mps 630 mmHg 47%
    10:00 +14°C° 0 mm 2 mps 630 mmHg 36%
    11:00 +16°C° 0 mm 2 mps 631 mmHg 25%
    12:00 +16°C° 0 mm 2 mps 631 mmHg 23%
    13:00 +17°C° 0 mm 3 mps 631 mmHg 21%
    14:00 +17°C° 0 mm 3 mps 631 mmHg 19%
    15:00 +15°C° 0 mm 2 mps 630 mmHg 24%
    16:00 +13°C° 0 mm 2 mps 629 mmHg 29%
    17:00 +11°C° 0 mm 1 mps 628 mmHg 34%
    18:00 +10°C° 0 mm 1 mps 628 mmHg 34%
    19:00 +8°C° 0 mm 1 mps 627 mmHg 35%
    20:00 +7°C° 0 mm 1 mps 627 mmHg 36%
    21:00 +7°C° 0 mm 1 mps 627 mmHg 37%
    22:00 +6°C° 0 mm 1 mps 627 mmHg 39%
    23:00 +6°C° 0 mm 1 mps 627 mmHg 41%

    24 October, Thursday

    Time Temperature Precipitation Wind Pressure Humidity
    00:00 +6°C° 0 mm 1 mps 627 mmHg 42%
    01:00 +6°C° 0 mm 1 mps 627 mmHg 44%
    02:00 +5°C° 0 mm 1 mps 627 mmHg 46%
    03:00 +5°C° 0 mm 1 mps 627 mmHg 43%
    04:00 +5°C° 0 mm 1 mps 627 mmHg 41%
    05:00 +5°C° 0 mm 1 mps 626 mmHg 39%
    06:00 +6°C° 0 mm 1 mps 627 mmHg 36%
    07:00 +7°C° 0 mm 1 mps 627 mmHg 33%
    08:00 +8°C° 0 mm 1 mps 628 mmHg 30%
    09:00 +11°C° 0 mm 1 mps 629 mmHg 26%
    10:00 +14°C° 0 mm 1 mps 630 mmHg 22%
    11:00 +16°C° 0 mm 1 mps 631 mmHg 18%
    12:00 +18°C° 0 mm 1 mps 631 mmHg 18%
    13:00 +17°C° 0 mm 2 mps 631 mmHg 18%
    14:00 +17°C° 0 mm 2 mps 630 mmHg 18%
    15:00 +15°C° 0 mm 2 mps 629 mmHg 24%
    16:00 +13°C° 0 mm 1 mps 628 mmHg 30%
    17:00 +11°C° 0 mm 1 mps 627 mmHg 36%
    18:00 +10°C° 0 mm 1 mps 627 mmHg 37%
    19:00 +9°C° 0 mm 1 mps 627 mmHg 38%
    20:00 +7°C° 0 mm 1 mps 626 mmHg 39%
    21:00 +7°C° 0 mm 1 mps 626 mmHg 41%
    22:00 +7°C° 0 mm 1 mps 626 mmHg 42%
    23:00 +7°C° 0 mm 1 mps 626 mmHg 44%
    Show more